[[{"header":{"parameterUnit":"m.s-1","parameterCategory":1,"la1":30.2991,"la2":30.254,"lo1":-89.0895,"lo2":-89.0444,"dy":0.0017,"dx":0.0017,"nx":28,"ny":28,"refTime":"2024-03-26T09:00:00:Z","depth":0,"parameterNumber":2,"parameterNumberName":"U-component_of_WINDS"},"data":[0,0,0,0,0,0,0,0,0,0,0,0,0,0,0,0,0,0,0,0,0,0,0,0,0,0,0,0,0,0,0,0,0,0,0,0,0,0,0,0,0,0,0,0,0,0,0,0,0,0,0,0,0,0,0,0,0,0,-1.2995,-1.2995,0,-1.2973,-1.2973,-1.2972,-1.2945,-1.2945,-1.2944,-1.2944,-1.2923,-1.2923,-1.2923,0,0,0,0,0,0,0,0,0,0,0,0,0,-1.3017,-1.3017,-1.2995,-1.2995,-1.2995,-1.2973,-1.2972,-1.2972,-1.2945,-1.2945,-1.2944,-1.2944,-1.2923,-1.2923,-1.2923,0,0,0,0,0,0,0,0,0,0,0,0,0,-1.3003,-1.3017,-1.2995,-1.2979,-1.2977,-1.2973,-1.2972,-1.2972,-1.2945,-1.2945,-1.2944,-1.2944,-1.2923,-1.2923,-1.2923,-1.2934,0,0,-1.2922,-1.2922,0,0,0,0,0,0,0,0,-1.3004,-1.3002,-1.2981,-1.298,-1.2978,-1.2961,-1.2973,-1.2959,-1.2946,-1.2957,-1.2944,-1.2943,-1.2936,-1.2935,-1.2932,-1.2933,-1.2932,-1.2922,-1.2922,-1.2922,-1.2922,0,0,0,0,0,0,0,-1.3005,-1.3003,-1.2987,-1.2981,-1.2979,-1.2973,-1.297,-1.297,-1.2951,-1.2956,-1.2954,-1.2952,-1.2935,-1.2933,-1.2932,-1.2932,-1.2922,-1.2922,-1.2922,-1.2922,-1.2941,-1.2941,0,0,0,0,0,0,-1.3008,-1.3004,-1.2987,-1.2986,-1.2989,-1.2973,-1.297,-1.2967,-1.2951,-1.2948,-1.2952,-1.2951,-1.2933,-1.2932,-1.2931,-1.2943,-1.2922,-1.2922,-1.2921,-1.294,-1.2941,-1.2942,0,0,0,0,0,0,-1.3008,-1.3007,-1.2988,-1.2994,-1.2991,-1.2973,-1.297,-1.2967,-1.2964,-1.2948,-1.2944,-1.2953,-1.2933,-1.2931,-1.2933,-1.2942,-1.2921,-1.2921,-1.2939,-1.294,-1.2941,-1.2967,0,0,0,0,0,0,-1.3009,-1.3007,-1.3011,-1.2994,-1.2991,-1.2991,-1.2971,-1.2967,-1.2964,-1.2961,-1.2947,-1.2945,-1.2932,-1.2934,-1.2933,-1.2941,-1.2921,-1.2939,-1.294,-1.2941,-1.2966,-1.2969,-1.2972,0,0,0,0,0,-1.301,-1.3019,-1.3011,-1.3009,-1.2995,-1.2991,-1.2989,-1.2974,-1.2964,-1.2968,-1.2958,-1.2945,-1.2941,-1.2934,-1.2933,-1.2941,-1.2938,-1.2939,-1.2941,-1.2964,-1.2968,-1.2972,0,0,0,0,0,0,-1.3038,-1.3017,-1.3007,-1.3012,-1.3003,-1.2986,-1.2991,-1.2979,-1.2974,-1.2972,-1.2954,-1.2951,-1.2955,-1.2948,-1.2941,-1.2951,-1.2938,-1.2939,-1.2956,-1.296,-1.2963,-1.2964,-1.2921,0,0,0,0,0,-1.3044,-1.3042,-1.3024,-1.303,-1.3026,-1.3009,-1.3007,-1.2996,-1.2987,-1.2983,-1.2973,-1.2965,-1.2962,-1.296,-1.2957,-1.2964,-1.2961,-1.297,-1.2973,-1.2975,-1.2977,-1.2981,-1.2984,-1.2947,-1.2947,-1.2946,0,0,-1.3058,-1.3046,-1.3046,-1.3035,-1.3027,-1.3026,-1.3006,-1.3006,-1.3005,-1.2983,-1.2984,-1.2977,-1.2967,-1.2972,-1.2974,-1.2966,-1.2987,-1.2977,-1.298,-1.298,-1.2983,-1.2986,-1.299,-1.2948,-1.2947,-1.2947,0,0,-1.3082,-1.3073,-1.3076,-1.3069,-1.3057,-1.3046,-1.3046,-1.3031,-1.3025,-1.3026,-1.301,-1.3009,-1.3004,-1.2997,-1.2993,-1.3015,-1.3003,-1.3014,-1.3031,-1.3035,-1.3038,-1.3041,-1.3049,-1.3052,-1.3016,-1.3016,-1.3016,0,-1.3101,-1.3097,-1.308,-1.308,-1.3076,-1.3055,-1.3059,-1.3053,-1.3041,-1.3039,-1.303,-1.3024,-1.3016,-1.3019,-1.3024,-1.3022,-1.3023,-1.3016,-1.3039,-1.3041,-1.3044,-1.3051,-1.3054,-1.3017,-1.3017,-1.3017,-1.3017,0,-1.3121,-1.3119,-1.3123,-1.3111,-1.3107,-1.311,-1.3093,-1.3091,-1.3081,-1.3071,-1.3072,-1.3061,-1.3055,-1.3055,-1.3045,-1.3057,-1.3053,-1.3042,-1.3028,-1.3049,-1.3056,-1.3058,-1.3019,-1.3019,-1.3018,-1.3018,0,0,-1.3163,-1.314,-1.3142,-1.3137,-1.3122,-1.312,-1.3121,-1.3114,-1.3114,-1.3106,-1.3107,-1.3103,-1.3093,-1.3089,-1.3077,-1.3081,-1.3099,-1.307,-1.3069,-1.3076,-1.3112,-1.312,-1.3124,-1.3091,-1.3091,-1.3092,-1.3113,0,-1.3184,-1.3185,-1.3169,-1.3174,-1.3172,-1.3152,-1.3153,-1.3145,-1.3135,-1.3133,-1.3123,-1.312,-1.3107,-1.3104,-1.3106,-1.3096,-1.3106,-1.3094,-1.3092,-1.3092,-1.3096,-1.3127,-1.3136,-1.3157,-1.3115,-1.3116,-1.3116,0,-1.321,-1.3203,-1.3207,-1.3192,-1.319,-1.3192,-1.3184,-1.3182,-1.3172,-1.3165,-1.316,-1.3147,-1.3148,-1.3134,-1.3135,-1.3128,-1.3126,-1.3121,-1.3121,-1.3121,-1.3106,-1.3128,-1.3163,-1.3166,-1.312,-1.312,-1.3119,0,-1.324,-1.3232,-1.3233,-1.3229,-1.3211,-1.3212,-1.3205,-1.3194,-1.3191,-1.3185,-1.3183,-1.3177,-1.3174,-1.317,-1.3156,-1.3147,-1.3159,-1.3144,-1.3154,-1.3154,-1.3157,-1.3158,-1.3193,-1.3156,-1.3156,-1.3156,-1.3156,0,-1.3266,-1.327,-1.3246,-1.3247,-1.3251,-1.3233,-1.3237,-1.3228,-1.3219,-1.3218,-1.3201,-1.3201,-1.3183,-1.3181,-1.317,-1.3173,-1.3172,-1.3166,-1.3164,-1.3168,-1.3169,-1.3167,-1.3165,-1.3157,-1.3156,-1.3156,-1.3156,0,-1.3301,-1.3285,-1.3285,-1.3268,-1.3264,-1.3267,-1.3253,-1.3254,-1.3243,-1.3242,-1.3241,-1.3225,-1.3222,-1.3207,-1.3201,-1.3194,-1.32,-1.3195,-1.3204,-1.3202,-1.3212,-1.3212,-1.3248,-1.3252,-1.3212,-1.3213,-1.3213,0,-1.3319,-1.3321,-1.3304,-1.3301,-1.3295,-1.3292,-1.3288,-1.3271,-1.3268,-1.3256,-1.3259,-1.3254,-1.3249,-1.3245,-1.3233,-1.3228,-1.3222,-1.3235,-1.3222,-1.3226,-1.3223,-1.3223,-1.3223,-1.3239,-1.3239,-1.3239,-1.324,0,-1.3352,-1.3344,-1.3339,-1.3331,-1.3327,-1.3321,-1.3313,-1.3313,-1.3293,-1.3291,-1.3287,-1.3283,-1.3276,-1.3272,-1.3265,-1.3259,-1.3246,-1.3244,-1.3246,-1.3251,-1.3256,-1.3254,-1.3212,-1.3244,-1.3243,-1.3243,-1.3243,-1.3243,-1.3379,-1.338,-1.3368,-1.3363,-1.3355,-1.3348,-1.3348,-1.3337,-1.3333,-1.3325,-1.3315,-1.3313,-1.3303,-1.3292,-1.3286,-1.3285,-1.3278,-1.3281,-1.3281,-1.3282,-1.3285,-1.3256,-1.3283,-1.3283,-1.3283,-1.3283,-1.3283,0,-1.3412,-1.3403,-1.3398,-1.3388,-1.3384,-1.3372,-1.3363,-1.3361,-1.3358,-1.335,-1.3345,-1.3341,-1.3336,-1.3324,-1.3318,-1.3319,-1.3314,-1.3319,-1.3319,-1.3317,-1.3291,-1.329,-1.3323,-1.3323,-1.3323,-1.3323,-1.3323,-1.3323,-1.3429,-1.3429,-1.342,-1.3417,-1.3408,-1.3405,-1.3401,-1.3395,-1.3388,-1.3383,-1.3379,-1.3371,-1.3361,-1.3354,-1.335,-1.3346,-1.3345,-1.3352,-1.3347,-1.3323,-1.3319,-1.3316,-1.3314,-1.3352,-1.3352,-1.3373,-1.3373,-1.3374]},{"header":{"parameterUnit":"m.s-1","parameterCategory":1,"la1":30.2991,"la2":30.254,"lo1":-89.0895,"lo2":-89.0444,"dy":0.0017,"dx":0.0017,"nx":28,"ny":28,"refTime":"2024-03-26T09:00:00:Z","depth":0,"parameterNumber":3,"parameterNumberName":"V-component_of_WINDS"},"data":[0,0,0,0,0,0,0,0,0,0,0,0,0,0,0,0,0,0,0,0,0,0,0,0,0,0,0,0,0,0,0,0,0,0,0,0,0,0,0,0,0,0,0,0,0,0,0,0,0,0,0,0,0,0,0,0,0,0,-4.3245,-4.3246,0,-4.3333,-4.3334,-4.3335,-4.3325,-4.3323,-4.3322,-4.332,-4.3408,-4.3411,-4.3415,0,0,0,0,0,0,0,0,0,0,0,0,0,-4.3065,-4.3069,-4.3245,-4.3246,-4.3247,-4.3333,-4.3334,-4.3336,-4.3325,-4.3323,-4.3321,-4.332,-4.3407,-4.3411,-4.3415,0,0,0,0,0,0,0,0,0,0,0,0,0,-4.3147,-4.307,-4.3245,-4.3252,-4.3254,-4.3333,-4.3334,-4.3336,-4.3325,-4.3323,-4.3321,-4.3319,-4.3405,-4.3411,-4.3416,-4.3492,0,0,-4.3433,-4.3435,0,0,0,0,0,0,0,0,-4.3143,-4.3154,-4.325,-4.3252,-4.3254,-4.3316,-4.3303,-4.3388,-4.3326,-4.3298,-4.332,-4.3318,-4.3379,-4.3386,-4.3407,-4.3496,-4.35,-4.3433,-4.3436,-4.3439,-4.344,0,0,0,0,0,0,0,-4.3137,-4.315,-4.328,-4.3251,-4.3254,-4.3251,-4.326,-4.3319,-4.3349,-4.33,-4.33,-4.331,-4.3379,-4.3402,-4.3409,-4.3501,-4.3433,-4.3438,-4.3441,-4.3443,-4.3659,-4.3661,0,0,0,0,0,0,-4.313,-4.3145,-4.3277,-4.3282,-4.3192,-4.3256,-4.3266,-4.3298,-4.3348,-4.3354,-4.3312,-4.331,-4.3394,-4.3403,-4.3412,-4.3506,-4.3439,-4.3444,-4.3447,-4.3657,-4.366,-4.3662,0,0,0,0,0,0,-4.3126,-4.3142,-4.3273,-4.3214,-4.323,-4.3261,-4.3297,-4.3301,-4.3324,-4.3358,-4.3363,-4.333,-4.3393,-4.3405,-4.3473,-4.3509,-4.3446,-4.3451,-4.3654,-4.3658,-4.3661,-4.3694,0,0,0,0,0,0,-4.3121,-4.314,-4.317,-4.3215,-4.3234,-4.3333,-4.3299,-4.3304,-4.3334,-4.3331,-4.3376,-4.3381,-4.3392,-4.3465,-4.3479,-4.3516,-4.3456,-4.3651,-4.3655,-4.366,-4.369,-4.3698,-4.3706,0,0,0,0,0,-4.3114,-4.3175,-4.3172,-4.3187,-4.3272,-4.3335,-4.3346,-4.3358,-4.3336,-4.3366,-4.3388,-4.338,-4.3503,-4.3472,-4.3487,-4.3526,-4.3648,-4.3654,-4.3659,-4.3686,-4.3697,-4.3706,0,0,0,0,0,0,-4.3132,-4.3181,-4.3178,-4.3254,-4.3291,-4.3333,-4.3371,-4.3369,-4.3411,-4.3407,-4.3419,-4.3429,-4.3499,-4.3519,-4.3484,-4.3604,-4.3573,-4.3581,-4.3588,-4.3598,-4.3606,-4.36,-4.346,0,0,0,0,0,-4.3145,-4.3194,-4.3233,-4.3297,-4.3316,-4.3341,-4.3369,-4.3375,-4.3413,-4.3428,-4.3455,-4.3492,-4.3539,-4.3569,-4.3614,-4.3693,-4.3703,-4.3727,-4.3735,-4.3741,-4.3749,-4.3793,-4.3805,-4.368,-4.368,-4.368,0,0,-4.3172,-4.3205,-4.3234,-4.3301,-4.3331,-4.338,-4.3354,-4.3407,-4.3444,-4.3436,-4.3503,-4.3524,-4.3566,-4.364,-4.3674,-4.3659,-4.3786,-4.3749,-4.3753,-4.3757,-4.38,-4.3812,-4.3822,-4.3684,-4.3683,-4.3683,0,0,-4.3247,-4.3276,-4.3333,-4.3364,-4.3409,-4.3425,-4.3439,-4.3482,-4.3497,-4.3564,-4.356,-4.3603,-4.3684,-4.3714,-4.374,-4.3829,-4.3822,-4.3843,-4.3884,-4.3927,-4.3937,-4.3946,-4.3978,-4.3989,-4.385,-4.385,-4.385,0,-4.3274,-4.335,-4.3362,-4.3417,-4.3447,-4.3444,-4.3502,-4.353,-4.3587,-4.3608,-4.3591,-4.3694,-4.3721,-4.3803,-4.3825,-4.3845,-4.3862,-4.3838,-4.3935,-4.3943,-4.3952,-4.3983,-4.3995,-4.3852,-4.3852,-4.3852,-4.3852,0,-4.3382,-4.3434,-4.3475,-4.3532,-4.3567,-4.3622,-4.3644,-4.3677,-4.3681,-4.3699,-4.3768,-4.3801,-4.3854,-4.3874,-4.3877,-4.3957,-4.3946,-4.3932,-4.3901,-4.3966,-4.3995,-4.4007,-4.3856,-4.3855,-4.3854,-4.3854,0,0,-4.3469,-4.3534,-4.3549,-4.3575,-4.3626,-4.3666,-4.3722,-4.3775,-4.3804,-4.3843,-4.3891,-4.396,-4.3948,-4.3977,-4.3984,-4.4022,-4.4091,-4.4003,-4.4004,-4.4019,-4.4182,-4.4193,-4.4206,-4.4087,-4.4089,-4.4091,-4.4179,0,-4.3549,-4.365,-4.3664,-4.3753,-4.3802,-4.38,-4.3849,-4.3885,-4.3904,-4.3948,-4.3968,-4.4018,-4.3997,-4.4015,-4.4052,-4.4075,-4.4124,-4.4068,-4.4131,-4.4134,-4.4122,-4.4222,-4.4233,-4.4314,-4.419,-4.4192,-4.4193,0,-4.3656,-4.3701,-4.3795,-4.384,-4.3862,-4.3905,-4.3956,-4.3998,-4.4039,-4.405,-4.4084,-4.4086,-4.4144,-4.4111,-4.4191,-4.4154,-4.418,-4.4195,-4.4199,-4.4205,-4.4168,-4.4232,-4.434,-4.4352,-4.4211,-4.421,-4.4209,0,-4.3712,-4.3795,-4.3863,-4.3885,-4.394,-4.3971,-4.3995,-4.4034,-4.4065,-4.4109,-4.4129,-4.4178,-4.4205,-4.4243,-4.4259,-4.4233,-4.4339,-4.4307,-4.435,-4.435,-4.4372,-4.4371,-4.4487,-4.4389,-4.4388,-4.4388,-4.4388,0,-4.38,-4.3858,-4.3889,-4.393,-4.3996,-4.4011,-4.4075,-4.4097,-4.4132,-4.4178,-4.4179,-4.4222,-4.424,-4.4285,-4.4298,-4.4363,-4.4375,-4.4385,-4.4388,-4.4386,-4.4385,-4.4404,-4.4399,-4.4391,-4.4391,-4.439,-4.4389,0,-4.3873,-4.3896,-4.397,-4.4016,-4.4029,-4.4075,-4.4114,-4.4154,-4.4173,-4.4231,-4.4246,-4.4275,-4.4329,-4.4349,-4.4413,-4.4422,-4.4498,-4.4496,-4.4485,-4.4486,-4.4528,-4.4524,-4.4661,-4.4681,-4.4568,-4.4569,-4.457,0,-4.3929,-4.3973,-4.4025,-4.4057,-4.4082,-4.4132,-4.4165,-4.4182,-4.4216,-4.4267,-4.4301,-4.4355,-4.4399,-4.4486,-4.4512,-4.4562,-4.4562,-4.4606,-4.4569,-4.4566,-4.4564,-4.4561,-4.4566,-4.4613,-4.4614,-4.4615,-4.4616,0,-4.4025,-4.4034,-4.4082,-4.4134,-4.4174,-4.4215,-4.4255,-4.4281,-4.4304,-4.4342,-4.4398,-4.4432,-4.45,-4.4554,-4.4606,-4.4629,-4.4627,-4.4628,-4.4641,-4.4639,-4.4631,-4.4637,-4.4504,-4.4625,-4.4624,-4.4623,-4.4623,-4.4622,-4.4091,-4.4132,-4.4175,-4.4228,-4.4261,-4.4299,-4.434,-4.4365,-4.4412,-4.4469,-4.4476,-4.4537,-4.4577,-4.4647,-4.4673,-4.4721,-4.4708,-4.4727,-4.4731,-4.4736,-4.474,-4.4623,-4.473,-4.473,-4.4729,-4.4729,-4.4729,0,-4.4188,-4.4217,-4.4266,-4.4323,-4.4365,-4.4361,-4.4405,-4.4441,-4.4495,-4.4533,-4.4578,-4.4642,-4.4695,-4.4727,-4.4779,-4.4811,-4.4812,-4.4825,-4.4823,-4.4829,-4.4747,-4.4731,-4.4824,-4.4824,-4.4824,-4.4824,-4.4824,-4.4824,-4.4244,-4.4313,-4.4328,-4.4413,-4.444,-4.4501,-4.4527,-4.4562,-4.4593,-4.4666,-4.4711,-4.4732,-4.4768,-4.4823,-4.4872,-4.4879,-4.4899,-4.4914,-4.492,-4.4844,-4.4834,-4.4825,-4.481,-4.4918,-4.4918,-4.4998,-4.4999,-4.5]}]]